This is the latest recevied weather packets stored in our database for station/object F4IVW-13. If no packets are shown the sender has not sent any weather packets the latest 10 day(s).
| Time | Temp. | Humidity | Pressure | Rain* | Wind** | Luminosity | Snow |
|---|---|---|---|---|---|---|---|
| 1777705054 | 18.33° C | 99% | 1017.8 hPa | 0 mm | - | 30 W/m² | - |
| 1777704737 | 17.78° C | 99% | 1017.9 hPa | 0 mm | - | 51 W/m² | - |
| 1777704420 | 15.56° C | 99% | 1017.9 hPa | 0 mm | - | 47 W/m² | - |
| 1777704102 | 13.89° C | 99% | 1017.9 hPa | 0 mm | - | 48 W/m² | - |
| 1777703785 | 13.33° C | 99% | 1018 hPa | 0 mm | - | 40 W/m² | - |
| 1777703474 | 12.78° C | 99% | 1018.1 hPa | 0 mm | - | 6 W/m² | - |
| 1777703149 | 12.22° C | 99% | 1018 hPa | 0 mm | - | 3 W/m² | - |
| 1777702829 | 12.22° C | 99% | 1018.1 hPa | 0 mm | - | 1 W/m² | - |
| 1777702513 | 11.67° C | 99% | 1018.2 hPa | 0 mm | - | 1 W/m² | - |
| 1777702195 | 11.67° C | 99% | 1018.2 hPa | 0 mm | - | 0 W/m² | - |
| 1777701878 | 11.11° C | 99% | 1018.2 hPa | 0 mm | - | 1 W/m² | - |
| 1777701570 | 11.11° C | 99% | 1018.2 hPa | 0 mm | - | 0 W/m² | - |
| 1777701242 | 10.56° C | 99% | 1018.2 hPa | 0 mm | - | 0 W/m² | - |
| 1777700922 | 10.56° C | 99% | 1018.1 hPa | 0 mm | - | 0 W/m² | - |
| 1777700604 | 10.56° C | 99% | 1018.1 hPa | 0 mm | - | 0 W/m² | - |
| 1777700287 | 10° C | 99% | 1018 hPa | 0 mm | - | 0 W/m² | - |
| 1777699968 | 10° C | 99% | 1018 hPa | 0 mm | - | 0 W/m² | - |
| 1777699659 | 10° C | 99% | 1017.9 hPa | 0 mm | - | 0 W/m² | - |
| 1777699334 | 10° C | 99% | 1017.8 hPa | 0 mm | - | 0 W/m² | - |
| 1777699017 | 10° C | 99% | 1017.7 hPa | 0 mm | - | 0 W/m² | - |
| 1777698699 | 10° C | 99% | 1017.8 hPa | 0 mm | - | 0 W/m² | - |
| 1777698380 | 10° C | 99% | 1017.7 hPa | 0 mm | - | 0 W/m² | - |
| 1777698063 | 10° C | 99% | 1017.7 hPa | 0 mm | - | 0 W/m² | - |
| 1777697755 | 10° C | 99% | 1017.8 hPa | 0 mm | - | 0 W/m² | - |
| 1777697429 | 10° C | 99% | 1017.9 hPa | 0 mm | - | 0 W/m² | - |
* Rain latest hour (hover to see other rain measurements)
** Current wind speed in m/s (hover to see current wind gust speed)